Regional Weather Roundup
Issued by NWS

Home | Current Version | Previous Version | Text Only | Print | Product List | Glossary On
Versions: 1 2 3 4 5 6 7 8 9 10 11 12 13 14 15 16 17 18 19 20 21 22 23 24 25 26 27 28 29 30 31 32 33 34 35 36 37 38 39 40 41 42 43 44 45 46 47 48 49 50
000
ASUS42 KFFC 280803
RWRGA
WEATHER ROUNDUP FOR GEORGIA
NATIONAL WEATHER SERVICE PEACHTREE CITY GA
300 AM EST SUN DEC 28 2014

NOTE: "FAIR" INDICATES FEW OR NO CLOUDS BELOW 12,000 FEET WITH NO
SIGNIFICANT WEATHER AND/OR OBSTRUCTIONS TO VISIBILITY.

* = USE WITH CAUTION. THE STATIONS MARKED WITH AN ASTERISK MAY NOT
REPORT WEATHER SUCH AS PRECIPITATION, FOG, OR THUNDER AND ARE NOT
QUALITY CONTROLLED BY NWS.

THE REMARK "TC" DENOTES TEMPERATURE READING IN DEGREES CELSIUS.

GAZ001>058-280900-
NORTH GEORGIA

CITY           SKY/WX    TMP DP  RH WIND       PRES   REMARKS
ATLANTA        HVY RAIN  53  51  93 S7        30.15S FOG
ATHENS         RAIN      50  49  96 CALM      30.16S FOG
CHAMBLEE       RAIN      51  51 100 N3        30.15R FOG
PEACHTREE CITY RAIN      52  52 100 CALM      30.16R FOG
ROME           LGT RAIN  51  51 100 CALM      30.08F FOG
WEST ATLANTA   HVY RAIN  52  51  97 CALM      30.15R FOG
GAINESVILLE    RAIN      49  48  97 N3        30.17R FOG
CARTERSVILLE   RAIN      51  50  96 E5        30.12F FOG


CITY           SKY/WX    TMP DP  RH WIND       PRES   REMARKS
DALTON*        LGT RAIN  52  52 100 SE8       30.09F
MARIETTA       HVY RAIN  52  52 100 E2        30.13F FOG
$$

GAZ059>098-102>109-280900-
CENTRAL GEORGIA

CITY           SKY/WX    TMP DP  RH WIND       PRES   REMARKS
AUGUSTA-BUSH   LGT RAIN  52  51  97 N7        30.14F
AUGUSTA-DANIEL LGT RAIN  55  53  93 CALM      30.15S
COLUMBUS       CLOUDY    54  53  97 CALM      30.11F
MACON          CLOUDY    55  55 100 CALM      30.12S
ROBINS AFB     CLOUDY    55  54  99 SE3       30.12S


CITY           SKY/WX    TMP DP  RH WIND       PRES   REMARKS
LAGRANGE*      RAIN      57  56  99 CALM      30.12S
SYLVANIA*      MOCLDY    56  54  93 CALM      30.14F
MILLEDGEVILLE* CLOUDY    55  55 100 CALM      30.15R
$$

GAZ099>101-110>166-280900-
SOUTH GEORGIA

CITY           SKY/WX    TMP DP  RH WIND       PRES   REMARKS
SAVANNAH       PTCLDY    52  48  86 CALM      30.15F
VALDOSTA       FOG       55  55 100 CALM      30.15F VSB 3/4
ALMA           PTCLDY    53  52  96 S3        30.15F
ST SIMONS      PTCLDY    55  53  93 CALM      30.16S
FT STEWART     PTCLDY    50  48  92 CALM      30.13F
ALBANY         MOCLDY    56  54  93 CALM      30.15S
HUNTER AFB     PTCLDY    51  50  97 SE2       30.13F
MOODY AFB      CLEAR     55  54  94 SE6       30.15F
BRUNSWICK        N/A     52  50  93 CALM      30.17S VSB 3/4


CITY           SKY/WX    TMP DP  RH WIND       PRES   REMARKS
BAINBRIDGE*    PTCLDY    59  55  88 SE5       30.12F
MOULTRIE*      MOCLDY    55  55 100 SE3       30.15F
VIDALIA*       MOCLDY    57  55  94 S5        30.13F
WAYCROSS*      PTCLDY    55  55 100 CALM      30.15F
DOUGLAS*       PTCLDY    57  55  94 S3        30.16F
$$



USA.gov is the U.S. government's official web portal to all federal, state and local government web resources and services.